STARLINK-37320, 68711

Orbit data source: Space-Track

STARLINK-37320, 68711 is a payload satellite owned by SpaceX/Seattle (US) in LEO that was launched on Tue, 14 Apr 2026 UTC via an FALCON 9 launch vehicle from the Air Force Eastern Test Range (AFETR). Payload-class satellites include a variety of spacecraft equipped with specific instruments for various scientific and technological missions. These include communications satellites like Starlink; space stations such as the ISS; scientific satellites like the Hubble; Earth observation satellites from companies like Planet Labs, Umbra, and HawkEye 360; GPS; miniature CubeSats for education and research; and military/defense satellites.

Loading next visibility...
Identifier
68711, 2026-081N
Orbit
LEO
Country
Flag of USUS
Related business
Manufacturer
SpaceX/Seattle
Mission
Operational spacecraft
Bus & Motor
STARLINK V2MO, Unknown motor
Mass
575 kg wet, ~530 kg dry
Launch date (UTC)
2026-04-14 (2 months ago)
Launch vehicle
FALCON 9
Launch site
Air Force Eastern Test Range (AFETR)
Object type
Payload
Rocket body
Debris
Shape & HBR
Unknown shape, 14.5 m
Radar Cross Section
Large (>1 m²)

Expand to show TLE details & history
Last TLE update: 10 hours ago

TLE from 10 hours ago
0 STARLINK-37320
1 68711U 26081N   26171.43738050  .00019542  00000-0  58804-3 0  9996
2 68711  53.1595 276.1584 0001445  86.4455 273.6713 15.34397881 10483
Epoch: 2026-06-20T10:29Z
TLE epoch observation values (Epoch: 2026-06-20T10:29:49.675Z)
Latitude
0.00001°
Longitude
-149.95059°
Altitude
463.548 km
Speed
7.636 km/s
True Right ascension
18h 24m 38s
True Declination
0° 00' 00"
Sunlit
Object was in full shadow at epoch
Visualization orbit readout
Latitude
Unknown
Longitude
Unknown
Altitude
Unknown
Speed
Unknown
Apparent Right ascension
Unknown
Apparent Declination
Unknown
Sunlit
N/A
Visualization observer readout
Local Sidereal Time
07:18:21
Azimuth
Unknown
Elevation
Unknown
Doppler factor
Unknown
Orbital elements
Apogee altitude
463.955 km
Perigee altitude
461.978 km
Semi-major axis
6,841.104 km
Eccentricity
0.00014
Inclination
53.1595°
RAAN
276.1584°
Arg. of periapsis
86.4455°
True anomaly
273.65478°
Mean anomaly
273.6713°
Eccentric anomaly
273.66304°
Mean motion
3.83578 °/min
Orbital period
93.85 mins
BSTAR
0.00058804
Loading maneuver chart data...
Computing Atmospheric mass density...
Loading historical data...
Loading historical data...
Loading historical data...
Loading historical data...
Loading historical data...
Loading historical data...
Loading historical data...

Documentation

Showing up to 5 results
|